Hourly Weather Roundup
Issued by NWS Central Illinois

Home | Current Version | Previous Version | Text Only | Print | Product List | Glossary On
Versions: 1 2 3 4 5 6 7 8 9 10 11 12 13 14 15 16 17 18 19 20 21 22 23 24 25 26 27 28 29 30 31 32 33 34 35 36 37 38 39 40 41 42 43 44 45 46 47 48 49 50
000
NZUS43 KILX 250910
HWRILX

AREA WEATHER ROUNDUP
NATIONAL WEATHER SERVICE, LINCOLN IL
400 AM CDT SUN SEP 25 2016


CITY           SKY/WX    TMP DP  RH WIND       PRES   REMARKS
BLOOMINGTON    CLEAR     69  66  90 SE8       30.08F
CHAMPAIGN      CLEAR     66  64  93 E7        30.09F FOG
DANVILLE       CLEAR     64  64  99 E5        30.09S FOG
DECATUR        CLEAR     66  64  93 E5        30.07F FOG
EFFINGHAM      CLEAR     67  67 100 CALM      30.09S FOG
FLORA          CLEAR     68  66  94 CALM      30.07S
GALESBURG      CLOUDY    67  64  92 MISG      30.04S
JACKSONVILLE   CLEAR     71  67  85 SE7       30.05S
LACON          CLEAR     66  64  94 CALM      30.05F FOG
LAWRENCEVILLE  CLEAR     67  65  93 NE3       30.09S FOG
LITCHFIELD     CLEAR     68  63  83 SE3       30.06S
$$


CITY           SKY/WX    TMP DP  RH WIND       PRES   REMARKS
LINCOLN        NOT AVBL
MACOMB         PTCLDY    67  66  96 S6        30.05S
MATTOON        CLEAR     69  66  90 SE6       30.07F FOG
MT CARMEL AP   CLEAR     67  65  94 NE5       30.08S FOG
OLNEY-NOBLE AP CLEAR     68  68 100 E3        30.08S
PARIS          CLEAR     67  66  99 CALM      30.10S FOG
PEORIA         CLEAR     72  68  87 SE8       30.05F
PONTIAC        CLEAR     67  67 100 SE8       30.09F FOG
RANTOUL        CLEAR     67  66  96 E3        30.10F FOG
ROBINSON         N/A     62  62 100 CALM      30.10S FOG
SPRINGFIELD    CLEAR     69  64  84 E6        30.06S
TAYLORVILLE    CLEAR     68  65  91 CALM      30.06F
$$

...REGIONAL REPORTS...


CITY           SKY/WX    TMP DP  RH WIND       PRES   REMARKS
CHICAGO O`HARE PTCLDY    66  61  84 SE7       30.11R
KANKAKEE       CLEAR     64  62  91 E8        30.11F
MOLINE         MOCLDY    66  64  93 E6        30.02F FOG
MOUNT STERLING PTCLDY    67  65  94 CALM      30.04R
MOUNT VERNON   CLEAR     64  61  88 CALM      30.07S
PITTSFIELD     CLEAR     69  67  94 CALM      30.05S
QUINCY         CLOUDY    71  66  84 SE7       30.02F
ROCKFORD       MOCLDY    66  63  90 SE7       30.08F
$$


CITY           SKY/WX    TMP DP  RH WIND       PRES   REMARKS
BURLINGTON     CLEAR     67  67 100 S6        30.01F
CEDAR RAPIDS   CLOUDY    68  68 100 SE3       30.00F
DES MOINES     LGT RAIN  70  69  97 S7        29.96F
KIRKSVILLE     MOCLDY    74  68  81 SW7       30.02R
OTTUMWA        CLOUDY    70  66  87 NE6       29.99F
ST LOUIS       CLEAR     73  66  78 CALM      30.05F
$$


CITY           SKY/WX    TMP DP  RH WIND       PRES   REMARKS
TERRE HAUTE    CLEAR     66  64  93 CALM      30.09F
EVANSVILLE     CLEAR     67  64  90 NE3       30.08S
INDIANAPOLIS   CLEAR     67  60  78 E6        30.11S
LAFAYETTE      CLEAR     63  60  90 E10       30.12S
MADISON        CLOUDY    63  61  93 S3        30.06F
MILWAUKEE      PTCLDY    65  62  90 SE6       30.11S
$$





USA.gov is the U.S. government's official web portal to all federal, state and local government web resources and services.